www.pogodaiklimat.ru

Погода и климат >> Архив погоды >> Индия >> Cannanore


ПОГОДА в Cannanore

  • Прогноз погоды в Cannanore
  • Монитор погоды в Cannanore
  • Климат города

АРХИВ ПОГОДЫ в Cannanore

Время (UTC), дата Ветер
(напр.,м/с)
 
Видим.   Явления Облачность Т
(С)
Тd
(С)
f
(%)
Тe
(С)
Тes
(С)
Комфортность P
(гПа)
Po
(гПа)
Тmin
(С)
Tmax
(С)
R
(мм)
R24
(мм)
S
(см)
00 13.08 СВ 2 2000 м дымка {дождь, морось} 9/4 300 м
[Frnb Ac As]
+23.0 +22.7 98 +32 +32 очень
душно
1007.2 1007.0 74
03 13.08 СВ 2 4000 м мгла {дождь, морось} 9/4 300 м
[Cu Sc Ac cuf Ci fib]
+24.8 +24.2 96 +34 +36 очень
душно
1009.0 1009.0 +22.6 +26.6 75
06 13.08 З 3 4000 м в посл. час дождь {морось} 9/4 300 м
[Cu Sc Ac As Ci fib]
+25.4 +24.5 95 +36 +42 очень
душно
1009.2 1009.0 5
09 13.08 З 3 4000 м слабая морось {дождь} 10/4 300 м
[Cu Sc Ac As]
+25.2 +23.7 91 +34 +37 очень
душно
1008.5 1009.0 9
12 13.08 З 3 4000 м в посл. час дождь {морось} 10/4 300 м
[Cu Sc Ac As]
+25.4 +23.7 90 +35 +35 очень
душно
1007.9 1008.0 +29.2 10
00 14.08 СЗ 2 2000 м слабая морось {дождь} 8/5 300 м
[Frnb Ac trans Ci fib]
+23.4 +22.8 96 +33 +33 очень
душно
1007.1 1007.0 29
03 14.08 штиль 0 10 км {дождь, морось} 9/5 300 м
[Frnb Ac trans Cs]
+25.4 +24.8 96 +36 +38 очень
душно
1007.7 1008.0 +23.0 +29.2 30
06 14.08 З 2 4000 м сильный дождь {морось} 10/6 300 м
[Frnb Ac As]
+24.2 +23.8 98 +33 +35 очень
душно
1008.5 1009.0 20
09 14.08 З 2 4000 м слабая морось {дождь} 10/6 200 м
[Frnb Ac As]
+24.6 +24.3 98 +34 +36 очень
душно
1006.7 1007.0 71
12 14.08 СЗ 4 4000 м слабый дождь {морось} 10/5 300 м
[Frnb Ac As]
+24.0 +23.4 96 +32 +32 очень
душно
1005.9 1006.0 +27.1 81
00 15.08 СЗ 3 2000 м дымка {дождь, морось} 8/4 300 м
[Frnb Ac trans Ci fib]
+25.0 +24.1 95 +34 +34 очень
душно
1006.2 1006.0 137
03 15.08 СЗ 3 10 км в посл. час морось 6/4 300 м
[Frnb Ac trans Ci fib]
+25.6 +24.7 95 +36 +39 очень
душно
1007.8 1008.0 +23.3 +27.1 137
06 15.08 З 3 4000 м слабая морось {дождь} 9/5 300 м
[Frnb Ac As]
+25.8 +24.6 93 +36 +40 очень
душно
1007.9 1008.0 2
09 15.08 З 3 4000 м слабая морось {дождь} 10/5 300 м
[Frnb Ac As]
+25.2 +24.0 93 +35 +37 очень
душно
1007.0 1007.0 6
12 15.08 З 2 4000 м слабый дождь {морось} 10/6 300 м
[Frnb Ac As]
+25.0 +24.1 95 +34 +35 очень
душно
1006.0 1006.0 +28.2 14
00 16.08 СЗ 2 2000 м в посл. час дождь {морось} 10/5 300 м
[Frnb Ac As]
+23.6 +23.3 98 +32 +32 очень
душно
1007.7 1008.0 48
03 16.08 З 2 4000 м в посл. час морось 10/5 300 м
[Frnb Ac As]
+24.6 +24.0 96 +34 +35 очень
душно
1009.0 1009.0 +23.1 +28.2 48
06 16.08 З 3 4000 м {морось} 10/5 300 м
[Frnb Ac As]
+25.6 +23.9 90 +35 +38 очень
душно
1009.1 1009.0 0.2
09 16.08 З 3 4000 м в посл. час дождь {морось} 9/4 300 м
[Cb cap Ac As]
+27.2 +24.9 87 +39 +43 очень
душно
1007.5 1008.0 1
12 16.08 З 3 4000 м в посл. час дождь {морось} 10/4 300 м
[Frnb Ac As]
+24.8 +23.6 93 +34 +34 очень
душно
1007.0 1007.0 +28.5 6
00 17.08 СЗ 2 2000 м дымка {дождь, морось} 8/5 300 м
[Frnb Ac trans Ci fib]
+24.8 +24.0 95 +34 +34 очень
душно
1006.7 1007.0 10
03 17.08 СЗ 2 10 км {морось} 8/5 300 м
[Frnb Ac trans]
+25.2 +24.3 95 +35 +37 очень
душно
1008.4 1008.0 +23.5 +28.5 10
06 17.08 СЗ 3 10 км {морось} 9/6 300 м
[Frnb Ac trans Cs]
+26.6 +24.3 87 +37 +41 очень
душно
1008.4 1008.0
09 17.08 З 3 10 км {дождь, морось} 8/4 300 м
[Cu Sc Ac trans Ci fib]
+27.2 +24.6 86 +39 +44 очень
душно
1006.6 1007.0 0.5
12 17.08 З 2 10 км {дождь, морось} 9/5 300 м
[Cu Sc Ac As Cs]
+26.0 +24.0 89 +36 +37 очень
душно
1006.0 1006.0 +28.2 0.7
00 18.08 штиль 0 2000 м дымка {дождь, морось} 6/4 300 м
[Frnb Ci fib]
+23.8 +23.2 96 +32 +32 очень
душно
1007.0 1007.0 38
03 18.08 штиль 0 4000 м дымка 9/5 300 м
[Frnb Ac trans Cs]
+25.4 +24.8 96 +36 +38 очень
душно
1009.1 1009.0 +22.9 +28.2 38
06 18.08 ЮЗ 3 10 км {морось} 6/4 600 м
[Cu Sc Ac trans Ci sp]
+28.4 +25.6 85 +42 +51 опасность
перегрева
1009.0 1009.0 0.1
09 18.08 ЮЗ 2 10 км 6/4 600 м
[Cu Sc Ac trans Ci sp]
+29.2 +25.5 80 +43 +51 опасность
перегрева
1007.1 1007.0 0.1
12 18.08 З 2 10 км 8/5 600 м
[Cu Sc Ac trans Ci sp]
+28.4 +24.7 80 +40 +41 очень
душно
1007.1 1007.0 +29.5 0.1
00 19.08 З 2 2000 м слабая морось {дождь} 9/4 300 м
[Frnb Ac trans]
+24.2 +23.3 95 +32 +32 очень
душно
1007.9 1008.0 6
03 19.08 штиль 0 4000 м мгла {дождь, морось} 10/4 300 м
[Frnb Ac As]
+25.4 +24.5 95 +36 +37 очень
душно
1009.2 1009.0 +23.5 +29.5 6
06 19.08 З 2 10 км {дождь} 9/3 300 м
[Cu Sc Ac cuf Ci fib]
+28.4 +25.0 82 +41 +49 опасность
перегрева
1009.4 1009.0
09 19.08 З 3 10 км {дождь} 9/4 300 м
[Cu Sc Ac trans Ci fib]
+29.4 +25.4 79 +43 +48 опасность
перегрева
1007.2 1007.0 1
12 19.08 З 3 10 км {дождь} 9/3 300 м
[Cb calv Ac trans Ci fib]
+27.4 +23.9 81 +38 +38 очень
душно
1007.0 1007.0 +29.9 1

 

Местоположение метеостанции Cannanore (Kerala, Индия): широта 11.83 долгота 75.33 высота над уровнем моря 18 м.

В архиве по умолчанию представлена погода в Cannanore за последнюю неделю. Архивные данные за месяц целиком и за предыдущие месяцы, начиная с января 2011 года, Вы можете получить, выбрав интересующий диапазон дат из раскрывающегося списка и нажав кнопку "Ввод!".


*Определитесь, кто Вы:
робот инопланетянин человек

Внимание! Время в таблицах - всемирное. Для получения местного времени необходимо прибавить поправку, которая в Cannanore равна 5.5 ч.

Смотрите также архив погоды в соседних городах и на ближайших метеорологических станциях:

Погода в Madikeri (Karnataka, Индия) (79 км)
Погода в Kozhikode (Kerala, Индия) (81 км)
Погода в Karipur (Kerala, Индия) (103 км)
Погода в Mangalore Airport (Karnataka, Индия) (131 км)
Погода в Mangalore (Karnataka, Индия) (136 км)
Погода в Mysore (Karnataka, Индия) (158 км)
Погода в Udhagamandalam (Tamil Nadu, Индия) (160 км)
Погода в Chickmagalur (Karnataka, Индия) (164 км)
Погода в Hassan (Karnataka, Индия) (167 км)
Погода в Coonoor (Tamil Nadu, Индия) (169 км)

Пояснения к столбцам:

Ветер - указаны скорость ветра в м/с - средняя за 10 мин, порывы в срок и между сроками (в фигурных скобках) и направление, откуда дует ветер: С - северный, СВ - северо-восточный, В - восточный, ЮВ - юго-восточный, Ю - южный, ЮЗ - юго-западный, З - западный, СЗ - северо-западный.
Видимость - горизонтальная дальность видимости в метрах или километрах. При видимости от 1 до 10 км при отсутствии осадков обычно наблюдается дымка, при ухудшении видимости до 1 км и менее - туман. В сухую погоду видимость может ухудшаться дымом, пылью или мглою.
Явления - указаны атмосферные явления, наблюдавшиеся в срок или в последний час перед сроком; фигурными скобками обозначены явления, наблюдавшиеся между сроками (за 1-3 часа до срока); квадратными скобками обозначены град или гололедные отложения с указанием их диаметра в мм.
Облачность - указаны через наклонную черту общая и нижняя облачность в баллах и высота нижней границы облаков в метрах; квадратными скобками обозначены формы облаков: Ci - перистые, Cs - перисто-слоистые, Cc - перисто-кучевые, Ac - высококучевые, As - высокослоистые, Sc - слоисто-кучевые, Ns - слоисто-дождевые, Cu - кучевые, Cb - кучево-дождевые. Подробнее классификацию облаков см. в Атласе облаков (PDF).
T - Температура воздуха - температура, измеренная на высоте 2 м над землей.
Td - Температура точки росы - температура, при понижении до которой содержащийся в воздухе водяной пар достигнет насыщения.
f - Относительная влажность воздуха - влажноcть воздуха, измеренная на высоте 2 м над землей.
Te - Эффективная температура - температура, которую ощущает одетый по сезону человек в тени. Характеристика душности погоды. При расчете учитывается влияние влажности воздуха и скорости ветра на теплоощущения человека.
Tes - Эффективная температура на солнце - температура, которую ощущает человек, с поправкой на солнечный нагрев. Характеристика знойности погоды. Зависит от высоты солнца над горизонтом, облачности и скорости ветра. Ночью, в пасмурную погоду, а также при ветре 12 м/с и более поправка равна нулю.
P - Атмосферное давление - приведенное к уровню моря атмосферное давление.
Po - Атмосферное давление - измеренное на уровне метеостанции атмосферное давление.
Tmin - Минимальная температура - минимум температуры воздуха на высоте 2 м над землей.
Tmax - Максимальная температура - максимум температуры воздуха на высоте 2 м над землей.
R - Количество осадков - Количество выпавших осадков за период времени, мм. При наведении курсора мыши на число - период времени, за который выпало указанное количество осадков.
R24 - Количество осадков - Количество выпавших осадков за 24 часа, мм.
S - Снежный покров - Высота снежного покрова, см. При наведении курсора мыши на число - состояние снежного покрова и степень покрытия местности в баллах.